Lone Rock, WI

12:42 AM CST on November 25, 2017 (GMT -0600)
Tri-County Regional

Weather History for KLNR - September, 2013

Change the Weather History Date:

Thursday, September 26, 2013

  Actual Average Record
Temperature  
Mean Temperature 61 °F -  
Max Temperature 78 °F 65 °F 84 °F (1998)
Min Temperature 44 °F 44 °F 33 °F (2000)
Degree Days  
Heating Degree Days 4    
Growing Degree Days 11 (Base 50)    
Moisture  
Dew Point 51 °F    
Average Humidity 85    
Maximum Humidity 100    
Minimum Humidity 45    
Precipitation  
Precipitation 0.00 in - - ()
Sea Level Pressure  
Sea Level Pressure 30.03 in    
Wind  
Wind Speed 3 mph (ESE)    
Max Wind Speed 10 mph    
Max Gust Speed -    
Visibility 5 miles    
Events Fog    
Averages and records for this station are not official NWS values.
T = Trace of Precipitation, MM = Missing Value Source: NWS Daily Summary

Daily Weather History Graph

Daily Weather History Graph

Search for Another Location

Airport or City:

Trip Planner

Search our weather history database for the weather conditions in past years. The results will help you decide how hot, cold, wet, or windy it might be!

Date:

Astronomy

Sep. 26, 2013 Rise Set
Actual Time 6:52 AM CDT 6:50 PM CDT
Civil Twilight 6:24 AM CDT 7:18 PM CDT
Nautical Twilight 5:51 AM CDT 7:51 PM CDT
Astronomical Twilight 5:17 AM CDT 8:25 PM CDT
Moon 11:40 PM CDT (9/26) 1:53 PM CDT (9/26)
Length of Visible Light 12h 54m
Length of Day
11h 57m
Waning Gibbous, 54% of the Moon is Illuminated
Sep 26
Waning Gibbous
Sep 26
Last Quarter
Oct 4
New
Oct 11
First Quarter
Oct 18
Full

Hourly Weather History & Observations

Time (CDT) Temp. Dew Point Humidity Pressure Visibility Wind Dir Wind Speed Gust Speed Precip Events Conditions
12:56 AM 51.1 °F 50.0 °F 96% 29.99 in 5.0 mi Calm Calm - N/A   Clear
1:56 AM 48.9 °F 46.0 °F 90% 30.00 in 4.0 mi Calm Calm - N/A   Clear
2:32 AM 46.4 °F 44.6 °F 93% 30.01 in 2.5 mi Calm Calm - N/A   Clear
2:42 AM 46.4 °F 44.6 °F 93% 30.02 in 4.0 mi Calm Calm - N/A   Clear
2:56 AM 46.0 °F 45.0 °F 96% 30.00 in 2.5 mi Calm Calm - N/A   Clear
3:03 AM 44.6 °F 42.8 °F 93% 30.02 in 1.0 mi Calm Calm - N/A   Clear
3:20 AM 46.4 °F 44.6 °F 93% 30.02 in 3.0 mi Calm Calm - N/A   Clear
3:36 AM 46.4 °F 44.6 °F 93% 30.02 in 2.0 mi Calm Calm - N/A   Partly Cloudy
3:43 AM 44.6 °F 44.6 °F 100% 30.02 in 1.5 mi Calm Calm - N/A   Mostly Cloudy
3:56 AM 45.0 °F 44.1 °F 97% 30.01 in 0.2 mi Calm Calm - N/A Fog Fog
4:11 AM 44.6 °F 44.6 °F 100% 30.03 in 0.2 mi Calm Calm - N/A Fog Fog
4:56 AM 45.0 °F 44.1 °F 97% 30.02 in 0.2 mi Calm Calm - N/A Fog Fog
5:56 AM 46.0 °F 46.0 °F 100% 30.03 in 0.2 mi Calm Calm - N/A Fog Fog
6:56 AM 46.0 °F 45.0 °F 96% 30.04 in 0.2 mi Calm Calm - N/A Fog Fog
7:37 AM 48.2 °F 48.2 °F 100% 30.06 in 0.5 mi ESE 3.5 mph - N/A Fog Fog
7:56 AM 50.0 °F 48.9 °F 96% 30.05 in 0.5 mi ESE 4.6 mph - N/A Fog Fog
8:03 AM 50.0 °F 50.0 °F 100% 30.06 in 0.2 mi ESE 5.8 mph - N/A Fog Fog
8:56 AM 53.1 °F 52.0 °F 96% 30.05 in 0.2 mi East 8.1 mph - N/A Fog Fog
9:56 AM 55.0 °F 55.0 °F 100% 30.06 in 0.2 mi ESE 8.1 mph - N/A Fog Fog
10:12 AM 55.4 °F 55.4 °F 100% 30.07 in 0.5 mi ESE 8.1 mph - N/A Fog Fog
10:25 AM 55.4 °F 55.4 °F 100% 30.07 in 1.5 mi ESE 5.8 mph - N/A   Overcast
10:44 AM 55.4 °F 55.4 °F 100% 30.07 in 2.5 mi East 6.9 mph - N/A   Overcast
10:56 AM 57.0 °F 55.9 °F 96% 30.06 in 3.0 mi East 6.9 mph - N/A   Overcast
11:22 AM 60.8 °F 57.2 °F 88% 30.06 in 5.0 mi East 6.9 mph - N/A   Scattered Clouds
11:56 AM 66.9 °F 57.9 °F 73% 30.04 in 8.0 mi ESE 8.1 mph - N/A   Clear
12:56 PM 73.0 °F 57.0 °F 57% 30.03 in 10.0 mi SSE 5.8 mph - N/A   Clear
1:56 PM 75.9 °F 55.9 °F 50% 30.01 in 10.0 mi SE 10.4 mph - N/A   Clear
2:56 PM 77.0 °F 57.0 °F 50% 30.00 in 10.0 mi ESE 4.6 mph - N/A   Clear
3:56 PM 78.1 °F 55.0 °F 45% 29.99 in 10.0 mi ESE 10.4 mph - N/A   Clear
4:56 PM 78.1 °F 55.0 °F 45% 29.99 in 10.0 mi ESE 10.4 mph - N/A   Clear
5:56 PM 75.9 °F 55.0 °F 48% 29.99 in 10.0 mi ESE 6.9 mph - N/A   Clear
6:56 PM 68.0 °F 55.9 °F 65% 30.00 in 10.0 mi East 6.9 mph - N/A   Clear
7:56 PM 64.0 °F 55.0 °F 73% 30.01 in 10.0 mi ESE 4.6 mph - N/A   Clear
8:56 PM 61.0 °F 54.0 °F 78% 30.02 in 10.0 mi East 8.1 mph - N/A   Clear
9:56 PM 60.1 °F 53.1 °F 78% 30.03 in 10.0 mi ESE 5.8 mph - N/A   Clear
10:56 PM 59.0 °F 51.1 °F 75% 30.04 in 10.0 mi East 9.2 mph - N/A   Clear
11:56 PM 57.0 °F 50.0 °F 77% 30.05 in 10.0 mi East 5.8 mph - N/A   Clear